Weather History for Nellis AFB, NV

Change the Weather History Date:

Thursday, February 21, 2013

  Actual Average Record
Temperature  
Mean Temperature 44 °F -  
Max Temperature 53 °F 61 °F 71 °F (1999)
Min Temperature 34 °F 41 °F 31 °F (2012)
Degree Days  
Heating Degree Days 22    
Moisture  
Dew Point 23 °F    
Average Humidity 52    
Maximum Humidity 94    
Minimum Humidity 19    
Precipitation  
Precipitation 0.00 in - - ()
Sea Level Pressure  
Sea Level Pressure 29.97 in    
Wind  
Wind Speed 6 mph (NE)    
Max Wind Speed 13 mph    
Max Gust Speed -    
Visibility 10 miles    
Events      
Averages and records for this station are not official NWS values.
T = Trace of Precipitation, MM = Missing Value Source: NWS Daily Summary

Daily Weather History Graph

Daily Weather History Graph

Search for Another Location

Airport:

Trip Planner

Search our weather history database for the weather conditions in past years. The results will help you decide how hot, cold, wet, or windy it might be!

Date:

Astronomy

Feb. 21, 2013 Rise Set
Actual Time 6:20 AM PST 5:27 PM PST
Civil Twilight 5:54 AM PST 5:53 PM PST
Nautical Twilight 5:24 AM PST 6:23 PM PST
Astronomical Twilight 4:54 AM PST 6:53 PM PST
Moon 1:50 PM PST (2/21) 3:23 AM PST (2/21)
Length of Visible Light 11h 59m
Length of Day
11h 07m
Waxing Gibbous, 84% of the Moon is Illuminated
Feb 21
Waxing Gibbous
Feb 25
Full
Mar 4
Last Quarter
Mar 11
New
Mar 19
First Quarter

Hourly Weather History & Observations

Time (PST) Temp. Windchill Dew Point Humidity Pressure Visibility Wind Dir Wind Speed Gust Speed Precip Events Conditions
12:58 AM 40.1 °F 34.1 °F 35.6 °F 84% 29.87 in 10.0 mi NE 9.2 mph - N/A   Scattered Clouds
1:58 AM 38.3 °F 34.8 °F 35.1 °F 88% 29.88 in 10.0 mi NE 4.6 mph - N/A   Clear
2:58 AM 36.9 °F 31.4 °F 34.0 °F 89% 29.87 in 10.0 mi NE 6.9 mph - N/A   Clear
3:58 AM 35.6 °F 32.8 °F 33.1 °F 91% 29.89 in 10.0 mi North 3.5 mph - N/A   Clear
4:58 AM 35.2 °F 29.5 °F 33.8 °F 94% 29.92 in 10.0 mi ENE 6.9 mph - N/A   Clear
5:58 AM 37.4 °F 33.8 °F 35.1 °F 91% 29.93 in 10.0 mi NE 4.6 mph - N/A   Clear
6:58 AM 34.9 °F 30.8 °F 32.7 °F 92% 29.96 in 10.0 mi East 4.6 mph - N/A   Clear
7:58 AM 38.7 °F - 34.2 °F 84% 29.99 in 10.0 mi NW 1.2 mph - N/A   Clear
8:58 AM 41.7 °F - 32.0 °F 68% 30.00 in 10.0 mi East 2.3 mph - N/A   Clear
9:58 AM 45.1 °F 40.3 °F 30.0 °F 55% 30.00 in 10.0 mi SSW 9.2 mph - N/A   Clear
10:58 AM 47.7 °F - 20.7 °F 34% 30.00 in 10.0 mi Variable 2.3 mph - N/A   Partly Cloudy
11:58 AM 48.9 °F - 18.3 °F 30% 29.99 in 10.0 mi Variable 1.2 mph - N/A   Clear
12:58 PM 51.6 °F - 16.2 °F 25% 29.96 in 10.0 mi Variable 4.6 mph - N/A   Clear
1:58 PM 52.3 °F - 14.7 °F 22% 29.97 in 10.0 mi Variable 5.8 mph - N/A   Clear
2:58 PM 53.1 °F - 14.0 °F 21% 29.96 in 10.0 mi North 2.3 mph - N/A   Clear
3:58 PM 53.4 °F - 14.5 °F 21% 29.96 in 10.0 mi ESE 5.8 mph - N/A   Clear
4:58 PM 52.9 °F - 11.8 °F 19% 29.97 in 10.0 mi South 3.5 mph - N/A   Clear
5:58 PM 50.7 °F - 14.5 °F 24% 29.99 in 10.0 mi SSE 5.8 mph - N/A   Clear
6:58 PM 46.6 °F - 16.9 °F 31% 30.02 in 10.0 mi NNE 2.3 mph - N/A   Clear
7:58 PM 45.3 °F 43.0 °F 17.4 °F 33% 30.03 in 10.0 mi NNE 4.6 mph - N/A   Clear
8:58 PM 42.3 °F 38.6 °F 16.5 °F 35% 30.04 in 10.0 mi ENE 5.8 mph - N/A   Clear
9:58 PM 40.8 °F 36.9 °F 16.5 °F 37% 30.05 in 10.0 mi NE 5.8 mph - N/A   Clear
10:58 PM 39.2 °F 31.6 °F 15.3 °F 38% 30.05 in 10.0 mi ENE 12.7 mph - N/A   Clear
11:58 PM 41.2 °F 35.5 °F 12.0 °F 30% 30.07 in 10.0 mi NNE 9.2 mph - N/A   Clear